Tracking 19709 objects as of 20-Jun-2019
HD Live streaming from Space Station
objects crossing your sky now

FLOCK 3P 18

Track FLOCK 3P 18 now!
10-day predictions
FLOCK 3P 18 is classified as:


NORAD ID: 41957
Int'l Code: 2017-008K
Perigee: 486.0 km
Apogee: 499.5 km
Inclination: 97.4 °
Period: 94.3 minutes
Semi major axis: 6863 km
RCS: Unknown
Launch date: February 15, 2017
Source: United States (US)
Launch site: SRIHARIKOTA (SRI)
aabbcc
Your satellite tracking list
Your tracking list is empty




NASA's NSSDC Master Catalog

Two Line Element Set (TLE):
1 41957U 17008K   19170.85729379  .00001769  00000-0  70060-4 0  9990
2 41957  97.4033 238.1665 0009898 127.9642 232.2493 15.26723116130014
Source of the keplerian elements: AFSPC